Погода в Фангареи

Новая Зеландия     35°43′28″S   174°18′45″E
темп.,
°C
ветер,
м/с
пор.,
м/с
влажн.,
%
обл.,
%
осадки,
мм/ч
давл.,
гПа
погр.,
м
1 марта, пн
пн101:00+14с119839 0.0 101423
04:00+14с119865 0.0 101423
07:00+13ссв119860 0.0 101323
10:00+21ссв246179 0.0 1014822
13:00+25св344556 0.0 10131758
16:00+23ссв245384 0.1 10121442
19:00+17з128892 1.3 101171
22:00+16св1298100 3.4 101358
2 марта, вт
вт201:00+15с119984 3.4 101233
04:00+14с129925 0.0 101144
07:00+14с129919 0.0 101036
10:00+20ссз268615 0.0 1012430
13:00+26зсз23478 0.0 10111620
16:00+21с149274 2.3 1010371
19:00+21ссз139352 4.8 1009147
22:00+17ссз139847 0.5 101180
3 марта, ср
ср301:00+16ссз179952 0.5 1010199
04:00+16ссз179940 0.0 1009217
07:00+16ссз169967 0.0 1008224
10:00+19сз2792100 0.0 1009500
13:00+24сз376697 0.4 10091285
16:00+24сз3668100 1.4 10081206
19:00+21ссз268797 2.5 1007477
22:00+17ссз299797 0.7 1008423
4 марта, чт
чт401:00+17ссз289999 4.3 1007410
04:00+17ссз21099100 1.6 1004463
07:00+17ссз1799100 6.6 1003400
10:00+18сз1797100 4.7 1003259
13:00+24зсз257174 6.2 1003997
16:00+21з368163 2.9 10021064
19:00+19юз377660 3.1 1003806
22:00+14зюз13995 0.0 1005114
5 марта, пт
пт501:00+13з129910 0.0 100663
04:00+12з119970 0.0 100537
07:00+12з119982 0.0 100527
10:00+18зюз24651 0.0 1006963
13:00+21юз226026 0.2 10061255
16:00+19ю127581 1.0 1004830
19:00+17ююв028886 2.0 1004148
22:00+14ю0187100 0.2 100523